1st Responders/1st Detectors/Storm Spotters Weather Summary for Powell County, KY

Forecast Maps


Reg. NEXRAD Animation


National Fire Danger: Day 1 & 2 Map

Current NWS Watch/Warnings

SPC Convective Day 1 Outlook


Day 2 Outlook

(Click images to enlarge|Page will refresh every 5 minutes)
UK Ag. Weather Center Desktop Severe Weather Service[HERE]
Powell County, KY Hazardous Weather Outlook Webcast
(9 AM to 9 PM Mon-Fri)
[Fast]
[Dial-up]


UKAWC 1st Detectors/1st Responders Precision Weather Forecast For POWELL County, Kentucky
(based on the NWS County Digital Forecast)

ISSUED AT 08:00 UTC ON SUNDAY SEP 15 2019
DAY SUNDAY
EDT 3HR 5A 6A 7A 8A 9A 10A 11A NOON 1P 2P 3P 4P 5P 6P 7P
MAX/MIN -- -- -- 50° -- -- -- -- -- -- -- -- -- -- 88°
TEMP 52° 52° 50° 52° 58° 65° 72° 77° 81° 83° 86° 88° 86° 83° 79°
SKY COVER 20% 16% 12% 8% 6% 4% 2% 2% 1% 1% 1% 1% 2% 3% 4%
Clouds
DEW PT 52° 52° 50° 52° 56° 58° 58° 56° 56° 54° 54° 54° 54° 54° 56°
RH 100% 99% 99% 100% 96% 78% 59% 48% 41% 36% 34% 32% 32% 37% 46%
POP 12HR -- -- -- 0% -- -- -- -- -- -- -- -- -- -- --
RAIN/SNOW (liq.equ) -- -- -- 0.00in -- -- -- -- -- 0.00in -- -- -- -- --
SNOWFALL -- -- -- 0in -- -- -- -- -- 0in -- -- -- -- --
WIND SPEED(MPH) 0 0 0 0 1 5 5 2 2 1 1 1 2 1 1
WIND Gust(MPH) 2 2 2 2 2 5 7 5 5 5 2 2 2 2 2
WIND DIR E E E E E SE SE SE SE SE SE S NW W NE
DEW Mod Dew Mod Dew Mod Dew Mod Dew Mod Dew -- -- -- -- -- -- -- -- -- --
HeatIndex 52 52 50 52 58 65 72 77 81 82 85 86 85 82 79
Rain Showers -- -- -- -- -- -- -- -- -- -- -- -- -- -- --
Thunder Storm -- -- -- -- -- -- -- -- -- -- -- -- -- -- --
Fog Areas of Patchy Patchy Patchy Patchy -- -- -- -- -- -- -- -- -- --
WIND CHILL -- -- -- -- -- -- -- -- -- -- -- -- -- -- --
SPRAY COND
DRY COND
LIVESTOCK HEATSTRESS 52.00 52.04 50.05 52.00 58.02 64.25 69.02 71.79 73.80 74.48 76.13 77.08 75.83 74.61 73.00



DAY MONDAY TUESDAY WEDNESDAY THURSDAY FRIDAY SATURDAY
EDT 6HR 8P 9P 10P 11P MIDN 1A 2A 3A 4A 5A 6A 7A 8A 9A 10A 11A NOON 1P 2P 3P 4P 5P 8P 11P 2A 5A 8A 11A 2P 5P 8P 2A 8A 2P 8P 2A 8A 2P 8P 2A 8A 2P 8P 2A 8A 2P 8P
MAX/MIN -- -- -- -- -- -- -- -- -- -- -- -- 54° -- -- -- -- -- -- -- -- 92° -- -- -- -- 61° -- -- 86° -- -- 58° 88° -- -- 59° 88° -- -- 61° 88° -- -- 61° 90° --
TEMP 74° 70° 65° 63° 61° 61° 61° 58° 58° 56° 54° 54° 61° 67° 74° 81° 85° 88° 90° 90° 92° 90° 81° 72° 67° 63° 63° 76° 83° 86° 76° 65° 59° 86° 76° 65° 61° 86° 77° 67° 63° 86° 79° 67° 63° 88° 76°
SKY COVER 5% 6% 6% 7% 9% 10% 12% 10% 8% 6% 6% 7% 8% 8% 7% 14% 21% 28% 38% 43% 45% 48% 50% 38% 15% 26% 34% 34% 29% 24% 23% 13% 7% 10% 10% 20% 11% 26% 19% 22% 19% 26% 19% 17% 18% 25% 36%
Clouds
DEW PT 56° 58° 56° 56° 56° 56° 56° 56° 54° 54° 54° 54° 56° 58° 59° 61° 63° 63° 63° 63° 65° 65° 65° 67° 65° 63° 63° 67° 65° 63° 63° 61° 58° 63° 61° 59° 58° 63° 61° 61° 59° 63° 63° 61° 61° 63° 63°
RH 55% 65% 73% 77% 80% 83% 83% 90% 89% 96% 100% 100% 84% 72% 61% 52% 48% 44% 42% 40% 40% 42% 60% 84% 92% 99% 100% 73% 55% 46% 61% 87% 96% 44% 58% 81% 93% 46% 58% 78% 89% 46% 58% 81% 92% 41% 62%
POP 12HR 0% -- -- -- -- -- -- -- -- -- -- -- 0% -- -- -- -- -- -- -- -- -- 20% -- -- -- 20% -- -- -- 2% -- 2% -- 2% -- 2% -- 5% -- 5% -- 7% -- 7% -- 7%
RAIN/SNOW (liq.equ) 0.00in -- -- -- -- -- 0.00in -- -- -- -- -- 0.00in -- -- -- -- -- 0.00in -- -- -- 0.00in -- 0.00in -- 0.00in -- 0.00in -- 0.00in -- -- -- -- -- -- -- -- -- -- -- -- -- -- -- --
SNOWFALL 0in -- -- -- -- -- 0in -- -- -- -- -- 0in -- -- -- -- -- 0in -- -- -- 0in -- 0in -- 0in -- 0in -- 0in -- -- -- -- -- -- -- -- -- -- -- -- -- -- -- --
WIND SPEED(MPH) 1 1 0 0 0 0 0 0 0 0 0 0 0 0 0 0 0 1 1 1 2 2 1 0 0 0 1 1 5 6 2 0 1 2 2 0 0 5 1 0 1 2 1 0 0 2 0
WIND DIR E E SE SE SE S S S S SE S S S SW W NW NW NW NW NW NW NW N NE NE NE NE NE NE NE NE E E E E SE S S SE S S W E S S W N
HeatIndex 74 70 65 63 61 61 61 58 58 56 54 54 61 67 74 82 85 89 91 92 94 93 83 72 67 63 63 76 86 88 76 65 59 87 76 65 61 88 77 67 63 88 81 67 63 89 76
Rain Showers -- -- -- -- -- -- -- -- -- -- -- -- -- -- -- -- -- -- Slight Chance Slight Chance Slight Chance Slight Chance Slight Chance Slight Chance -- -- -- -- -- -- -- -- -- -- -- -- -- -- -- -- -- -- -- -- -- -- --
Thunder Storm -- -- -- -- -- -- -- -- -- -- -- -- -- -- -- -- -- -- Slight Chance Slight Chance Slight Chance Slight Chance Slight Chance Slight Chance -- -- -- -- -- -- -- -- -- -- -- -- -- -- -- -- -- -- -- -- -- -- --
Fog -- -- -- -- -- -- -- Patchy Patchy Patchy Patchy Patchy -- -- -- -- -- -- -- -- -- -- -- -- Patchy Patchy Patchy -- -- -- -- -- Patchy -- -- -- Patchy -- -- -- -- -- -- -- Patchy -- --
WIND CHILL -- -- -- -- -- -- -- -- -- -- -- -- -- -- -- -- -- -- -- -- -- -- -- -- -- -- -- -- -- -- -- -- -- -- -- -- -- -- -- -- -- -- -- -- -- -- --
SPRAY COND
DRY COND
LIVESTOCK HEATSTRESS 70.24 67.84 64.08 62.47 60.76 60.79 60.79 58.04 58.05 56.06 54.00 54.00 60.81 65.74 70.74 75.14 77.51 79.01 80.05 79.70 81.04 80.05 76.12 70.84 66.64 62.98 63.00 73.45 77.01 77.92 72.31 64.56 59.00 77.62 72.03 64.35 60.92 77.92 72.80 66.01 62.75 77.92 74.33 66.14 62.82 78.52 72.41

Click on individual weather variable above in left-hand column (ie., TEMP, RH, QPF 12HR) to view state forecast maps






NWS 48 Hr. Forecast Maps,

Regional Hourly Observations For POWELL County, Kentucky
Issued at 400 AM EDT SUN SEP 15 2019
NORTHEAST KENTUCKY
  
CITY           SKY/WX    TMP DP  RH WIND       PRES   REMARKS
LEXINGTON      FAIR      60  51  72 E5        30.22F                  
COVINGTON      FAIR      59  55  87 S5        30.20F                  
FRANKFORT      FAIR      56  54  93 CALM      30.20F                  


Current NOWCAST not available:
Nowcasts are not issued routinely during fair weather. Only when
precipitation or other significant weather is occuring in this county will these
forecasts be issued. Currently, there is no short term forecast in effect.


Fire Weather Forecast For POWELL County, KY
Provided by the National Weather Service:

Issued at: Sun Sep 15 04:05:01 EDT 2019

557 AM EDT Sat Sep 14 2019

                      Today        Tonight      Sun          

Cloud Cover           MClear       MClear       Clear        
Chance precip (%)     0            0            0            
Precip type           None         None         None         
Temp (24H TREND)      82-85 (-10)  51-59 (-8)   85-88        
Rh % (24H TREND)      36-42 (+7)   81-100 (+2)  30-35        
20ftwnd-AM(mph)       NW 2-6                    Lgt/Var      
20ftwnd-PM(mph)       NW 3-7 G13   Lgt/Var      Lgt/Var      
Precip duration                                              
Precip begin                                                 
Precip end                                                   
Precip amount         0.00         0.00         0.00         
LAL                   1            1            1            
Haines Index (MID)    4                         5            
Mixing hgt(ft-AGL)    4500                      3000         
Transport wnd (mph)   NW  7                     E  5         
Vent rate (kt-ft)     29143                     11381        
ADI Early             29 Fair      2 Very Poor  18 Gen Poor  
ADI Late              33 Fair      3 Very Poor  17 Gen Poor  
Max LVORI Early       7            6            6            
Max LVORI Late        3            8            2            

REMARKS...RANGES OF MIN T EXCEEDING 8 DEGREES & RANGES OF MAX RH        
EXCEEDING 10% INDICATE THE LIKELIHOOD OF THERMAL BELTS. ADI IS        
ATMOSPHERIC DISPERSION INDEX BY LAVDAS. DISPERSION INDEX IS        
MAGNITUDE OF VENT RATE DIVIDED BY 1000.


SPC's Fire Weather Web Tool (Excellent!), SPC's Fire Weather Outlooks, NWS Fire Weather WEB, Fire Danger Class Map,
Keetch-Byram Drought Index, ROMAN Web, Haines Index ,
WFAS's 10-hr Dead Fuel Moist., WFAS's 100-hr Dead Fuel Moist., Probablity of Ignition, Visual blackness Map, Palmer Drought Index, HPC's Rainfall Forecast Maps


Hazardous Weather Outlook For POWELL County, Kentucky
334 PM EDT Sat Sep 14 2019

 DAY ONE  Tonight.

No hazardous weather is expected at this time.

 DAYS TWO THROUGH SEVEN  Sunday through Friday.

There is a slight chance of thunderstorms on Monday and Monday
evening.

 SPOTTER INFORMATION STATEMENT  

Spotter activation is not anticipated.

Latest POWELL County, Kentucky Watches, Warnings and Advisories.
Additional Drought Info.: UKAWC Drought Page, Kentucky Drought Watch


7-Day Forecast For POWELL County, KY

REST OF TONIGHT
Mostly clear. Patchy valley fog near dawn. Lows 52 to 57. Light winds.

SUNDAY
Warm, sunny. Highs in the upper 80s. Light winds.

SUNDAY NIGHT
Mostly clear. Patchy valley fog near dawn. Lows in the mid 50s in the valleys and in the lower 60s on the ridges. Light winds.

MONDAY
Hot. Mostly sunny. A 20 percent chance of showers and thunderstorms in the afternoon. Highs in the lower 90s. Light winds.

MONDAY NIGHT
Partly cloudy. A 20 percent chance of showers and thunderstorms in the evening. Patchy valley fog late. Lows in the lower 60s. Light winds.

TUESDAY
Mostly sunny. Highs in the mid 80s.

TUESDAY NIGHT
Mostly clear. Patchy valley fog. Lows around 60.

WEDNESDAY
Sunny. Highs in the upper 80s.

WEDNESDAY NIGHT
Mostly clear. Lows in the lower 60s.

THURSDAY
Sunny. Highs in the upper 80s.

THURSDAY NIGHT
Mostly clear. Lows in the lower 60s.

FRIDAY
Sunny. Highs in the upper 80s.

FRIDAY NIGHT
Mostly clear. Lows in the lower 60s.

SATURDAY
Sunny. Highs in the upper 80s.

Ag Weather Center, Department of Biosystems & Agricultural Engineering, University of Kentucky